Weather History for Gulf Shores, AL

Change the Weather History Date:

Wednesday, October 12, 2011

  Actual Average (KPNS) Record (KPNS)
Temperature  
Mean Temperature 70 °F 71 °F  
Max Temperature 77 °F 80 °F 90 °F (1991)
Min Temperature 62 °F 62 °F 44 °F (2000)
Degree Days  
Heating Degree Days 0 1  
Month to date heating degree days 2  
Since 1 July heating degree days 3  
Cooling Degree Days 6 6  
Month to date cooling degree days 94  
Year to date cooling degree days 2464  
Growing Degree Days 20 (Base 50)    
Moisture  
Dew Point 63 °F    
Average Humidity 78    
Maximum Humidity 94    
Minimum Humidity 57    
Precipitation  
Precipitation 0.00 in 0.16 in 3.26 in (1986)
Month to date precipitation 2.09  
Year to date precipitation 52.84  
Sea Level Pressure  
Sea Level Pressure 29.84 in    
Wind  
Wind Speed 4 mph (NW)    
Max Wind Speed 10 mph    
Max Gust Speed -    
Visibility 10 miles    
Events      
T = Trace of Precipitation, MM = Missing Value Source: NWS Daily Summary

Daily Weather History Graph

Daily Weather History Graph

Search for Another Location

Airport:

Trip Planner

Search our weather history database for the weather conditions in past years. The results will help you decide how hot, cold, wet, or windy it might be!

Date:

Astronomy

Oct. 12, 2011 Rise Set
Actual Time 6:50 AM CDT 6:23 PM CDT
Civil Twilight 6:26 AM CDT 6:47 PM CDT
Nautical Twilight 5:58 AM CDT 7:15 PM CDT
Astronomical Twilight 5:30 AM CDT 7:42 PM CDT
Moon 6:33 PM CDT (10/12) 7:18 AM CDT (10/12)
Length of Visible Light 12h 20m
Length of Day
11h 32m
Full, 100% of the Moon is Illuminated
Oct 12
Full
Oct 19
Last Quarter
Oct 26
New
Nov 2
First Quarter
Nov 10
Full

Hourly Weather History & Observations

Time (CDT) Temp. Dew Point Humidity Pressure Visibility Wind Dir Wind Speed Gust Speed Precip Events Conditions
12:15 AM 68.0 °F 64.4 °F 88% 29.87 in 10.0 mi North 3.5 mph - N/A   Overcast
12:35 AM 68.0 °F 64.4 °F 88% 29.86 in 10.0 mi North 3.5 mph - N/A   Overcast
12:55 AM 68.0 °F 64.4 °F 88% 29.85 in 10.0 mi North 4.6 mph - N/A   Overcast
1:15 AM 68.0 °F 64.4 °F 88% 29.85 in 10.0 mi NNW 4.6 mph - N/A   Overcast
1:35 AM 68.0 °F 64.4 °F 88% 29.86 in 10.0 mi North 3.5 mph - N/A   Overcast
1:55 AM 68.0 °F 64.4 °F 88% 29.85 in 10.0 mi North 8.1 mph - N/A   Overcast
2:35 AM 68.0 °F 64.4 °F 88% 29.85 in 10.0 mi NNW 4.6 mph - N/A   Overcast
3:15 AM 68.0 °F 64.4 °F 88% 29.83 in 10.0 mi NNE 5.8 mph - N/A   Overcast
3:35 AM 68.0 °F 64.4 °F 88% 29.83 in 10.0 mi NNE 6.9 mph - N/A   Mostly Cloudy
3:55 AM 68.0 °F 64.4 °F 88% 29.84 in 10.0 mi NNW 4.6 mph - N/A   Mostly Cloudy
4:15 AM 68.0 °F 62.6 °F 83% 29.83 in 10.0 mi NNE 6.9 mph - N/A   Overcast
4:35 AM 68.0 °F 62.6 °F 83% 29.83 in 10.0 mi NE 4.6 mph - N/A   Overcast
4:55 AM 68.0 °F 62.6 °F 83% 29.83 in 10.0 mi East 3.5 mph - N/A   Overcast
5:15 AM 68.0 °F 62.6 °F 83% 29.84 in 10.0 mi Calm Calm - N/A   Overcast
5:35 AM 68.0 °F 62.6 °F 83% 29.84 in 10.0 mi Calm Calm - N/A   Overcast
5:55 AM 68.0 °F 62.6 °F 83% 29.84 in 10.0 mi Calm Calm - N/A   Overcast
6:15 AM 68.0 °F 62.6 °F 83% 29.86 in 10.0 mi Calm Calm - N/A   Overcast
6:35 AM 68.0 °F 62.6 °F 83% 29.86 in 10.0 mi Calm Calm - N/A   Overcast
6:55 AM 68.0 °F 62.6 °F 83% 29.86 in 10.0 mi Calm Calm - N/A   Overcast
7:15 AM 66.2 °F 62.6 °F 88% 29.86 in 10.0 mi North - - N/A   Overcast
7:35 AM 68.0 °F 64.4 °F 88% 29.86 in 10.0 mi Calm Calm - N/A   Overcast
7:55 AM 68.0 °F 62.6 °F 83% 29.87 in 10.0 mi North - - N/A   Scattered Clouds
8:15 AM 68.0 °F 64.4 °F 88% 29.87 in 10.0 mi Calm Calm - N/A   Mostly Cloudy
8:35 AM 68.0 °F 64.4 °F 88% 29.88 in 10.0 mi Calm Calm - N/A   Overcast
9:15 AM 69.8 °F 64.4 °F 83% 29.88 in 10.0 mi Calm Calm - N/A   Overcast
9:35 AM 69.8 °F 64.4 °F 83% 29.88 in 10.0 mi Calm Calm - N/A   Overcast
9:55 AM 71.6 °F 64.4 °F 78% 29.87 in 10.0 mi North 5.8 mph - N/A   Overcast
10:15 AM 71.6 °F 64.4 °F 78% 29.87 in 10.0 mi North 4.6 mph - N/A   Scattered Clouds
10:35 AM 73.4 °F 64.4 °F 73% 29.87 in 10.0 mi Calm Calm - N/A   Clear
10:55 AM 73.4 °F 62.6 °F 69% 29.87 in 10.0 mi Calm Calm - N/A   Clear
11:15 AM 73.4 °F 62.6 °F 69% 29.87 in 10.0 mi Calm Calm - N/A   Mostly Cloudy
11:35 AM 73.4 °F 62.6 °F 69% 29.87 in 10.0 mi Calm Calm - N/A   Overcast
11:55 AM 75.2 °F 62.6 °F 65% 29.86 in 10.0 mi Calm Calm - N/A   Overcast
12:15 PM 73.4 °F 64.4 °F 73% 29.85 in 10.0 mi Calm Calm - N/A   Mostly Cloudy
12:35 PM 75.2 °F 64.4 °F 69% 29.85 in 10.0 mi South 3.5 mph - N/A   Overcast
12:55 PM 75.2 °F 64.4 °F 69% 29.84 in 10.0 mi ESE 3.5 mph - N/A   Overcast
1:15 PM 77.0 °F 62.6 °F 61% 29.83 in 10.0 mi West 8.1 mph - N/A   Mostly Cloudy
1:35 PM 77.0 °F 62.6 °F 61% 29.83 in 10.0 mi West 9.2 mph - N/A   Scattered Clouds
2:15 PM 77.0 °F 60.8 °F 57% 29.82 in 10.0 mi West 9.2 mph - N/A   Overcast
2:35 PM 77.0 °F 62.6 °F 61% 29.82 in 10.0 mi WSW 8.1 mph - N/A   Mostly Cloudy
2:55 PM 77.0 °F 62.6 °F 61% 29.81 in 10.0 mi West 9.2 mph - N/A   Mostly Cloudy
3:15 PM 77.0 °F 62.6 °F 61% 29.81 in 10.0 mi West 9.2 mph - N/A   Mostly Cloudy
3:35 PM 77.0 °F 62.6 °F 61% 29.81 in 10.0 mi WSW 9.2 mph - N/A   Mostly Cloudy
4:15 PM 75.2 °F 62.6 °F 65% 29.80 in 10.0 mi West 9.2 mph - N/A   Clear
4:35 PM 75.2 °F 62.6 °F 65% 29.80 in 10.0 mi West 9.2 mph - N/A   Clear
4:55 PM 73.4 °F 62.6 °F 69% 29.81 in 10.0 mi West 10.4 mph - N/A   Clear
5:15 PM 73.4 °F 62.6 °F 69% 29.81 in 10.0 mi West 6.9 mph - N/A   Scattered Clouds
5:35 PM 73.4 °F 62.6 °F 69% 29.80 in 10.0 mi West 4.6 mph - N/A   Overcast
5:55 PM 71.6 °F 62.6 °F 73% 29.81 in 10.0 mi West 5.8 mph - N/A   Overcast
6:15 PM 71.6 °F 62.6 °F 73% 29.81 in 10.0 mi West 4.6 mph - N/A   Overcast
6:35 PM 71.6 °F 62.6 °F 73% 29.80 in 10.0 mi West 3.5 mph - N/A   Overcast
6:55 PM 71.6 °F 62.6 °F 73% 29.81 in 10.0 mi WNW 3.5 mph - N/A   Overcast
7:15 PM 71.6 °F 62.6 °F 73% 29.81 in 10.0 mi West 3.5 mph - N/A   Overcast
7:35 PM 71.6 °F 62.6 °F 73% 29.82 in 10.0 mi Calm Calm - N/A   Overcast
7:55 PM 69.8 °F 62.6 °F 78% 29.82 in 10.0 mi Calm Calm - N/A   Mostly Cloudy
8:15 PM 68.0 °F 62.6 °F 83% 29.82 in 10.0 mi Calm Calm - N/A   Clear
8:35 PM 64.4 °F 62.6 °F 94% 29.82 in 10.0 mi Calm Calm - N/A   Clear
8:55 PM 64.4 °F 62.6 °F 94% 29.83 in 10.0 mi Calm Calm - N/A   Clear
9:15 PM 64.4 °F 62.6 °F 94% 29.83 in 7.0 mi Calm Calm - N/A   Clear
9:35 PM 62.6 °F 60.8 °F 94% 29.83 in 1.2 mi Calm Calm - N/A   Mist
9:55 PM 62.6 °F 60.8 °F 94% 29.83 in 1.8 mi Calm Calm - N/A   Mist
10:15 PM 62.6 °F 62.6 °F 100% 29.84 in 10.0 mi Calm Calm - N/A   Clear
10:35 PM 64.4 °F 62.6 °F 94% 29.84 in 7.0 mi Calm Calm - N/A   Clear
10:55 PM 62.6 °F 62.6 °F 100% 29.84 in 7.0 mi Calm Calm - N/A   Clear
11:15 PM 60.8 °F 60.8 °F 100% 29.84 in 4.0 mi Calm Calm - N/A   Clear
11:35 PM 62.6 °F 62.6 °F 100% 29.84 in 7.0 mi Calm Calm - N/A   Clear
11:55 PM 62.6 °F 60.8 °F 94% 29.82 in 7.0 mi Calm Calm - N/A   Clear